PPGOW SBSJ-SBJD

Flight info

Callsign PPGOW
Flight time 1h 6m
Altitude 8000
Route VUPSA DCT NUXES DCT SJ054 DCT SJ051 DCT SJ052 DCT JD011 DCT JD012 DCT JD013 DCT JD014
Aircraft C172/L-SFG/C

Departure

Time 2026-04-17 22:38
Airport Professor Urbano Ernesto Stumpf Airport (SBSJ)

Arrival

Time 2026-04-17 23:44
Airport Comte. Rolim Adolfo Amaro–Jundiaí State Airport (SBJD)
Time Latitude Longitude Altitude Speed Heading
2026-04-17 22:32 -23.21993 -45.87177 2035 ft 0 kts 135°
2026-04-17 22:36 -23.22051 -45.87110 2036 ft 33 kts 136°
2026-04-17 22:37 -23.22315 -45.86822 2049 ft 72 kts 135°
2026-04-17 22:37 -23.22723 -45.86384 2134 ft 87 kts 132°
2026-04-17 22:37 -23.23156 -45.85909 2321 ft 84 kts 136°
2026-04-17 22:37 -23.23576 -45.85468 2482 ft 85 kts 135°
2026-04-17 22:38 -23.23999 -45.85029 2638 ft 87 kts 137°
2026-04-17 22:38 -23.24402 -45.84583 2852 ft 80 kts 134°
2026-04-17 22:38 -23.24794 -45.84148 3015 ft 80 kts 135°
2026-04-17 22:38 -23.25181 -45.83722 3170 ft 79 kts 135°
2026-04-17 22:39 -23.25568 -45.83301 3309 ft 79 kts 135°
2026-04-17 22:39 -23.25958 -45.82876 3453 ft 80 kts 135°
2026-04-17 22:39 -23.26738 -45.82025 3736 ft 80 kts 135°
2026-04-17 22:40 -23.27134 -45.81595 3871 ft 80 kts 136°
2026-04-17 22:40 -23.27533 -45.81160 4000 ft 82 kts 136°
2026-04-17 22:40 -23.27935 -45.80722 4147 ft 82 kts 136°
2026-04-17 22:40 -23.28306 -45.80242 4270 ft 85 kts 111°
2026-04-17 22:41 -23.28281 -45.79608 4416 ft 86 kts 71°
2026-04-17 22:41 -23.27852 -45.79173 4548 ft 87 kts 20°
2026-04-17 22:41 -23.27277 -45.79012 4690 ft 86 kts 12°
2026-04-17 22:41 -23.26690 -45.78865 4835 ft 87 kts 11°
2026-04-17 22:42 -23.26103 -45.78720 4989 ft 87 kts 10°
2026-04-17 22:42 -23.25514 -45.78575 5142 ft 87 kts 10°
2026-04-17 22:42 -23.24924 -45.78429 5300 ft 87 kts 10°
2026-04-17 22:42 -23.24334 -45.78284 5456 ft 87 kts 11°
2026-04-17 22:43 -23.23744 -45.78138 5610 ft 87 kts 10°
2026-04-17 22:43 -23.23155 -45.77993 5753 ft 87 kts
2026-04-17 22:43 -23.22565 -45.77847 5888 ft 87 kts
2026-04-17 22:43 -23.21968 -45.77700 6002 ft 91 kts
2026-04-17 22:44 -23.21301 -45.77538 6014 ft 105 kts
2026-04-17 22:44 -23.20553 -45.77355 6008 ft 113 kts 11°
2026-04-17 22:44 -23.19785 -45.77165 5998 ft 114 kts 11°
2026-04-17 22:44 -23.19020 -45.76974 5995 ft 114 kts 11°
2026-04-17 22:45 -23.18251 -45.76786 5992 ft 113 kts 11°
2026-04-17 22:45 -23.17489 -45.76596 5989 ft 112 kts 11°
2026-04-17 22:45 -23.16730 -45.76410 5990 ft 112 kts 11°
2026-04-17 22:45 -23.15970 -45.76224 5991 ft 112 kts 11°
2026-04-17 22:46 -23.15209 -45.76036 5991 ft 112 kts 11°
2026-04-17 22:46 -23.14446 -45.75849 5990 ft 112 kts 11°
2026-04-17 22:46 -23.13686 -45.75661 5988 ft 111 kts 11°
2026-04-17 22:46 -23.12932 -45.75475 5987 ft 111 kts 10°
2026-04-17 22:47 -23.12178 -45.75297 5985 ft 110 kts
2026-04-17 22:47 -23.11461 -45.75483 5981 ft 107 kts 327°
2026-04-17 22:47 -23.10920 -45.76008 6033 ft 99 kts 311°
2026-04-17 22:47 -23.10476 -45.76502 6272 ft 85 kts 312°
2026-04-17 22:48 -23.10062 -45.76964 6410 ft 85 kts 311°
2026-04-17 22:48 -23.09648 -45.77425 6540 ft 85 kts 311°
2026-04-17 22:48 -23.09239 -45.77881 6679 ft 84 kts 311°
2026-04-17 22:48 -23.08827 -45.78338 6801 ft 85 kts 311°
2026-04-17 22:49 -23.08416 -45.78796 6934 ft 84 kts 311°
2026-04-17 22:49 -23.08012 -45.79247 7059 ft 84 kts 311°
2026-04-17 22:49 -23.07600 -45.79704 7182 ft 85 kts 311°
2026-04-17 22:49 -23.07189 -45.80162 7288 ft 85 kts 311°
2026-04-17 22:50 -23.06777 -45.80620 7406 ft 84 kts 311°
2026-04-17 22:50 -23.06367 -45.81076 7513 ft 84 kts 311°
2026-04-17 22:50 -23.05956 -45.81532 7621 ft 84 kts 310°
2026-04-17 22:50 -23.05547 -45.81989 7730 ft 84 kts 310°
2026-04-17 22:51 -23.05135 -45.82447 7841 ft 85 kts 309°
2026-04-17 22:51 -23.04712 -45.82918 7913 ft 88 kts 309°
2026-04-17 22:51 -23.04284 -45.83394 7994 ft 91 kts 309°
2026-04-17 22:51 -23.03816 -45.83917 8007 ft 101 kts 310°
2026-04-17 22:52 -23.03307 -45.84485 8006 ft 110 kts 310°
2026-04-17 22:52 -23.02761 -45.85090 8003 ft 112 kts 310°
2026-04-17 22:52 -23.02222 -45.85688 7998 ft 110 kts 310°
2026-04-17 22:52 -23.01694 -45.86274 7999 ft 108 kts 310°
2026-04-17 22:53 -23.01174 -45.86851 7996 ft 106 kts 309°
2026-04-17 22:53 -23.00663 -45.87419 7996 ft 104 kts 310°
2026-04-17 22:53 -23.00164 -45.87971 7998 ft 101 kts 310°
2026-04-17 22:53 -22.99672 -45.88520 8003 ft 102 kts 310°
2026-04-17 22:54 -22.99174 -45.89074 8006 ft 103 kts 310°
2026-04-17 22:54 -22.98672 -45.89631 8009 ft 103 kts 310°
2026-04-17 22:54 -22.98171 -45.90189 8011 ft 104 kts 310°
2026-04-17 22:54 -22.97747 -45.90808 8009 ft 102 kts 284°
2026-04-17 22:55 -22.97634 -45.91563 8017 ft 101 kts 277°
2026-04-17 22:55 -22.97514 -45.92318 8019 ft 102 kts 277°
2026-04-17 22:55 -22.97401 -45.93070 8022 ft 102 kts 277°
2026-04-17 22:55 -22.97285 -45.93839 8016 ft 104 kts 277°
2026-04-17 22:56 -22.97169 -45.94614 8015 ft 104 kts 277°
2026-04-17 22:56 -22.97054 -45.95389 8011 ft 104 kts 276°
2026-04-17 22:56 -22.96940 -45.96163 8010 ft 103 kts 277°
2026-04-17 22:56 -22.96826 -45.96935 8010 ft 104 kts 277°
2026-04-17 22:57 -22.96712 -45.97706 8012 ft 104 kts 277°
2026-04-17 22:57 -22.96597 -45.98480 8022 ft 104 kts 277°
2026-04-17 22:57 -22.96482 -45.99253 8022 ft 103 kts 277°
2026-04-17 22:57 -22.96367 -46.00027 8024 ft 104 kts 277°
2026-04-17 22:58 -22.96253 -46.00800 8020 ft 103 kts 277°
2026-04-17 22:58 -22.96141 -46.01551 8011 ft 102 kts 277°
2026-04-17 22:58 -22.96028 -46.02314 8008 ft 101 kts 277°
2026-04-17 22:58 -22.95916 -46.03071 8010 ft 102 kts 277°
2026-04-17 22:59 -22.95803 -46.03834 8017 ft 103 kts 277°
2026-04-17 22:59 -22.95688 -46.04607 8019 ft 104 kts 277°
2026-04-17 22:59 -22.95573 -46.05381 8018 ft 104 kts 277°
2026-04-17 22:59 -22.95458 -46.06153 8018 ft 104 kts 277°
2026-04-17 23:00 -22.95344 -46.06924 8017 ft 104 kts 277°
2026-04-17 23:00 -22.95229 -46.07696 8017 ft 104 kts 277°
2026-04-17 23:00 -22.95114 -46.08467 8019 ft 103 kts 277°
2026-04-17 23:00 -22.94999 -46.09240 8015 ft 104 kts 277°
2026-04-17 23:01 -22.94884 -46.10017 8015 ft 105 kts 277°
2026-04-17 23:01 -22.94769 -46.10789 8010 ft 103 kts 277°
2026-04-17 23:01 -22.94654 -46.11555 8014 ft 103 kts 277°
2026-04-17 23:01 -22.94540 -46.12332 8013 ft 105 kts 277°
2026-04-17 23:02 -22.94425 -46.13095 8012 ft 103 kts 277°
2026-04-17 23:02 -22.94311 -46.13864 8013 ft 104 kts 277°
2026-04-17 23:02 -22.94194 -46.14647 8016 ft 104 kts 277°
2026-04-17 23:02 -22.94079 -46.15416 8010 ft 104 kts 277°
2026-04-17 23:03 -22.93964 -46.16191 8017 ft 105 kts 277°
2026-04-17 23:03 -22.93847 -46.16971 8023 ft 105 kts 277°
2026-04-17 23:03 -22.93730 -46.17749 8021 ft 104 kts 277°
2026-04-17 23:03 -22.93615 -46.18525 8019 ft 104 kts 277°
2026-04-17 23:04 -22.93539 -46.19035 8019 ft 103 kts 277°
2026-04-17 23:04 -22.93423 -46.19809 8018 ft 104 kts 277°
2026-04-17 23:04 -22.93308 -46.20580 8018 ft 103 kts 277°
2026-04-17 23:04 -22.93193 -46.21347 8017 ft 103 kts 277°
2026-04-17 23:05 -22.93079 -46.22110 8017 ft 102 kts 277°
2026-04-17 23:05 -22.92965 -46.22872 8016 ft 102 kts 277°
2026-04-17 23:05 -22.92799 -46.23628 8015 ft 105 kts 293°
2026-04-17 23:05 -22.92454 -46.24330 8021 ft 105 kts 291°
2026-04-17 23:06 -22.92150 -46.25043 8017 ft 106 kts 292°
2026-04-17 23:06 -22.91832 -46.25765 8016 ft 106 kts 292°
2026-04-17 23:06 -22.91516 -46.26483 8016 ft 105 kts 292°
2026-04-17 23:06 -22.91198 -46.27199 8016 ft 105 kts 292°
2026-04-17 23:07 -22.90881 -46.27915 8013 ft 105 kts 292°
2026-04-17 23:07 -22.90563 -46.28628 8013 ft 105 kts 292°
2026-04-17 23:07 -22.90247 -46.29339 8013 ft 104 kts 292°
2026-04-17 23:07 -22.89931 -46.30050 8015 ft 105 kts 292°
2026-04-17 23:08 -22.89612 -46.30767 8021 ft 106 kts 292°
2026-04-17 23:08 -22.89291 -46.31489 8020 ft 106 kts 292°
2026-04-17 23:08 -22.88972 -46.32204 8018 ft 104 kts 291°
2026-04-17 23:08 -22.88657 -46.32909 8014 ft 105 kts 292°
2026-04-17 23:09 -22.88340 -46.33629 8014 ft 106 kts 292°
2026-04-17 23:09 -22.88019 -46.34348 8013 ft 106 kts 292°
2026-04-17 23:09 -22.87705 -46.35051 8012 ft 105 kts 292°
2026-04-17 23:09 -22.87388 -46.35762 8011 ft 105 kts 292°
2026-04-17 23:10 -22.87072 -46.36474 8014 ft 105 kts 292°
2026-04-17 23:10 -22.86755 -46.37184 8011 ft 104 kts 292°
2026-04-17 23:10 -22.86441 -46.37891 8011 ft 104 kts 292°
2026-04-17 23:10 -22.86127 -46.38593 8010 ft 103 kts 292°
2026-04-17 23:11 -22.85815 -46.39294 8006 ft 102 kts 292°
2026-04-17 23:11 -22.85510 -46.39977 8015 ft 100 kts 292°
2026-04-17 23:11 -22.85208 -46.40657 8014 ft 101 kts 292°
2026-04-17 23:11 -22.84899 -46.41350 8011 ft 103 kts 292°
2026-04-17 23:12 -22.84586 -46.42053 8015 ft 104 kts 292°
2026-04-17 23:12 -22.84276 -46.42749 8014 ft 104 kts 292°
2026-04-17 23:12 -22.83962 -46.43452 8017 ft 103 kts 292°
2026-04-17 23:12 -22.83647 -46.44159 8009 ft 102 kts 293°
2026-04-17 23:13 -22.83339 -46.44848 8016 ft 102 kts 292°
2026-04-17 23:13 -22.83028 -46.45545 8015 ft 103 kts 292°
2026-04-17 23:13 -22.82720 -46.46238 8019 ft 104 kts 292°
2026-04-17 23:13 -22.82403 -46.46946 8018 ft 104 kts 292°
2026-04-17 23:14 -22.82088 -46.47653 8019 ft 104 kts 292°
2026-04-17 23:14 -22.81776 -46.48351 8016 ft 103 kts 292°
2026-04-17 23:14 -22.81464 -46.49049 8014 ft 103 kts 292°
2026-04-17 23:14 -22.81151 -46.49751 8014 ft 104 kts 292°
2026-04-17 23:15 -22.80834 -46.50461 8016 ft 105 kts 292°
2026-04-17 23:15 -22.80516 -46.51173 8014 ft 104 kts 292°
2026-04-17 23:15 -22.80204 -46.51871 8011 ft 103 kts 292°
2026-04-17 23:15 -22.79888 -46.52577 8010 ft 103 kts 292°
2026-04-17 23:16 -22.79580 -46.53269 8015 ft 104 kts 292°
2026-04-17 23:16 -22.79263 -46.53976 8015 ft 104 kts 292°
2026-04-17 23:16 -22.78947 -46.54685 8017 ft 104 kts 292°
2026-04-17 23:16 -22.78629 -46.55395 8019 ft 105 kts 292°
2026-04-17 23:17 -22.78311 -46.56107 8017 ft 105 kts 292°
2026-04-17 23:17 -22.77993 -46.56819 8016 ft 106 kts 292°
2026-04-17 23:17 -22.77673 -46.57533 8010 ft 105 kts 294°
2026-04-17 23:17 -22.77354 -46.58249 8006 ft 106 kts 293°
2026-04-17 23:18 -22.77033 -46.58965 8008 ft 105 kts 293°
2026-04-17 23:18 -22.76713 -46.59680 8005 ft 105 kts 293°
2026-04-17 23:18 -22.76396 -46.60387 8003 ft 104 kts 293°
2026-04-17 23:18 -22.76081 -46.61092 8001 ft 103 kts 293°
2026-04-17 23:19 -22.75768 -46.61792 8003 ft 104 kts 293°
2026-04-17 23:19 -22.75451 -46.62498 8005 ft 104 kts 293°
2026-04-17 23:19 -22.75134 -46.63206 8004 ft 105 kts 293°
2026-04-17 23:19 -22.74820 -46.63908 8005 ft 104 kts 293°
2026-04-17 23:20 -22.74503 -46.64614 8004 ft 104 kts 293°
2026-04-17 23:20 -22.74188 -46.65320 7996 ft 104 kts 293°
2026-04-17 23:20 -22.73873 -46.66020 7996 ft 104 kts 293°
2026-04-17 23:20 -22.73559 -46.66724 7994 ft 103 kts 293°
2026-04-17 23:21 -22.73245 -46.67427 8000 ft 104 kts 293°
2026-04-17 23:21 -22.72927 -46.68135 8000 ft 104 kts 293°
2026-04-17 23:21 -22.72609 -46.68845 8003 ft 105 kts 293°
2026-04-17 23:21 -22.72289 -46.69558 8001 ft 105 kts 293°
2026-04-17 23:22 -22.71970 -46.70268 7992 ft 104 kts 292°
2026-04-17 23:22 -22.71656 -46.70971 7994 ft 104 kts 292°
2026-04-17 23:22 -22.71340 -46.71673 7994 ft 103 kts 293°
2026-04-17 23:22 -22.71026 -46.72372 7995 ft 103 kts 293°
2026-04-17 23:23 -22.70713 -46.73071 7998 ft 103 kts 293°
2026-04-17 23:23 -22.70398 -46.73775 7992 ft 104 kts 293°
2026-04-17 23:23 -22.70081 -46.74479 7991 ft 104 kts 293°
2026-04-17 23:23 -22.69764 -46.75185 7989 ft 104 kts 293°
2026-04-17 23:24 -22.69453 -46.75877 7987 ft 104 kts 293°
2026-04-17 23:24 -22.69135 -46.76587 7989 ft 103 kts 293°
2026-04-17 23:24 -22.68823 -46.77281 7989 ft 104 kts 293°
2026-04-17 23:24 -22.68507 -46.77983 7987 ft 103 kts 293°
2026-04-17 23:25 -22.68194 -46.78681 7986 ft 103 kts 293°
2026-04-17 23:25 -22.67879 -46.79381 7987 ft 104 kts 292°
2026-04-17 23:25 -22.67562 -46.80086 7989 ft 104 kts 292°
2026-04-17 23:25 -22.67246 -46.80791 7988 ft 104 kts 292°
2026-04-17 23:26 -22.66930 -46.81495 7978 ft 104 kts 292°
2026-04-17 23:26 -22.66614 -46.82197 7980 ft 104 kts 292°
2026-04-17 23:26 -22.66295 -46.82907 7980 ft 105 kts 292°
2026-04-17 23:26 -22.66069 -46.83642 7975 ft 102 kts 268°
2026-04-17 23:27 -22.66222 -46.84382 7978 ft 101 kts 244°
2026-04-17 23:27 -22.66712 -46.84920 7978 ft 102 kts 214°
2026-04-17 23:27 -22.67399 -46.85116 7976 ft 105 kts 183°
2026-04-17 23:27 -22.68123 -46.85148 7979 ft 104 kts 189°
2026-04-17 23:28 -22.68847 -46.85202 7979 ft 105 kts 187°
2026-04-17 23:28 -22.69579 -46.85250 7981 ft 106 kts 187°
2026-04-17 23:28 -22.70312 -46.85296 7978 ft 105 kts 187°
2026-04-17 23:28 -22.71041 -46.85341 7975 ft 105 kts 187°
2026-04-17 23:29 -22.71768 -46.85385 7975 ft 105 kts 187°
2026-04-17 23:29 -22.72495 -46.85431 7975 ft 105 kts 187°
2026-04-17 23:29 -22.73225 -46.85475 7976 ft 105 kts 187°
2026-04-17 23:29 -22.73956 -46.85519 7977 ft 105 kts 187°
2026-04-17 23:30 -22.74681 -46.85564 7977 ft 106 kts 187°
2026-04-17 23:30 -22.75421 -46.85609 7980 ft 107 kts 187°
2026-04-17 23:30 -22.76162 -46.85655 7978 ft 107 kts 187°
2026-04-17 23:30 -22.76902 -46.85700 7979 ft 107 kts 187°
2026-04-17 23:31 -22.77645 -46.85745 7976 ft 107 kts 187°
2026-04-17 23:31 -22.78399 -46.85792 7927 ft 111 kts 187°
2026-04-17 23:31 -22.79180 -46.85840 7846 ft 115 kts 187°
2026-04-17 23:31 -22.79992 -46.85890 7745 ft 119 kts 187°
2026-04-17 23:32 -22.80825 -46.85940 7644 ft 121 kts 187°
2026-04-17 23:32 -22.81662 -46.85992 7532 ft 120 kts 187°
2026-04-17 23:32 -22.82490 -46.86042 7423 ft 118 kts 187°
2026-04-17 23:32 -22.83309 -46.86091 7317 ft 117 kts 187°
2026-04-17 23:33 -22.84102 -46.86141 7214 ft 114 kts 187°
2026-04-17 23:33 -22.84896 -46.86188 7116 ft 115 kts 187°
2026-04-17 23:33 -22.85697 -46.86238 7014 ft 115 kts 187°
2026-04-17 23:33 -22.86496 -46.86287 6915 ft 115 kts 187°
2026-04-17 23:34 -22.87302 -46.86337 6819 ft 117 kts 186°
2026-04-17 23:34 -22.88117 -46.86386 6711 ft 118 kts 186°
2026-04-17 23:34 -22.88934 -46.86437 6604 ft 117 kts 186°
2026-04-17 23:34 -22.89746 -46.86486 6502 ft 117 kts 186°
2026-04-17 23:35 -22.90563 -46.86535 6397 ft 118 kts 186°
2026-04-17 23:35 -22.91384 -46.86587 6289 ft 118 kts 186°
2026-04-17 23:35 -22.92207 -46.86637 6181 ft 118 kts 186°
2026-04-17 23:35 -22.93024 -46.86686 6075 ft 118 kts 186°
2026-04-17 23:36 -22.93842 -46.86737 5973 ft 118 kts 186°
2026-04-17 23:36 -22.94660 -46.86787 5869 ft 118 kts 186°
2026-04-17 23:36 -22.95479 -46.86838 5766 ft 118 kts 186°
2026-04-17 23:36 -22.96289 -46.86887 5664 ft 118 kts 186°
2026-04-17 23:37 -22.97114 -46.86938 5558 ft 118 kts 186°
2026-04-17 23:37 -22.97893 -46.87161 5453 ft 116 kts 216°
2026-04-17 23:37 -22.98491 -46.87739 5362 ft 115 kts 225°
2026-04-17 23:37 -22.99076 -46.88331 5263 ft 115 kts 225°
2026-04-17 23:38 -22.99661 -46.88922 5162 ft 115 kts 225°
2026-04-17 23:38 -23.00245 -46.89516 5061 ft 115 kts 225°
2026-04-17 23:38 -23.00831 -46.90111 4960 ft 115 kts 225°
2026-04-17 23:38 -23.01411 -46.90702 4862 ft 114 kts 225°
2026-04-17 23:39 -23.01991 -46.91291 4768 ft 115 kts 225°
2026-04-17 23:39 -23.02574 -46.91886 4668 ft 116 kts 225°
2026-04-17 23:39 -23.03159 -46.92482 4567 ft 115 kts 225°
2026-04-17 23:39 -23.03739 -46.93073 4468 ft 114 kts 225°
2026-04-17 23:40 -23.04322 -46.93667 4369 ft 115 kts 224°
2026-04-17 23:40 -23.04942 -46.94222 4288 ft 115 kts 207°
2026-04-17 23:40 -23.05682 -46.94508 4277 ft 111 kts 204°
2026-04-17 23:40 -23.06385 -46.94829 4230 ft 111 kts 204°
2026-04-17 23:41 -23.07108 -46.95146 4170 ft 111 kts 204°
2026-04-17 23:41 -23.07828 -46.95460 4103 ft 112 kts 203°
2026-04-17 23:41 -23.08544 -46.95771 4034 ft 113 kts 203°
2026-04-17 23:41 -23.09274 -46.96088 3958 ft 113 kts 203°
2026-04-17 23:42 -23.10006 -46.96402 3866 ft 115 kts 201°
2026-04-17 23:42 -23.10810 -46.96416 3729 ft 120 kts 169°
2026-04-17 23:42 -23.11639 -46.96272 3585 ft 122 kts 174°
2026-04-17 23:42 -23.12489 -46.96148 3441 ft 124 kts 173°
2026-04-17 23:43 -23.13350 -46.96016 3290 ft 125 kts 172°
2026-04-17 23:43 -23.14216 -46.95882 3133 ft 126 kts 172°
2026-04-17 23:43 -23.15080 -46.95748 2962 ft 126 kts 172°
2026-04-17 23:43 -23.15891 -46.95510 2837 ft 112 kts 146°
2026-04-17 23:44 -23.16509 -46.95115 2743 ft 96 kts 159°
2026-04-17 23:44 -23.17138 -46.94842 2564 ft 99 kts 155°
2026-04-17 23:44 -23.17750 -46.94548 2450 ft 90 kts 155°
2026-04-17 23:44 -23.18207 -46.94334 2469 ft 47 kts 159°
2026-04-17 23:45 -23.18417 -46.94339 2477 ft 0 kts 245°